Home > Weather > Londonderry > Past weeks

Flag for United Kingdom Past Weather in Londonderry, Northern Ireland, United Kingdom — Yesterday and Last 2 Weeks

Now
57 °F

Cool.


Feels Like: 54 °F
Forecast: 46 / 59 °F
Wind: 14 mph from West

Location: Castlederg

Current Time: Jun 28, 2016 at 9:32:02 PM

Latest Report: Jun 28, 2016 at 8:00 PM


Visibility: 19 mi

Pressure: 29.71 "Hg

Humidity: 65%

Dew Point: 45 °F

Location of LondonderryLocation

Past Weather in Londonderry — Graph

°F

Londonderry Temperature Yesterday

Maximum temperature yesterday: 62 °F (at 5:00 PM)
Minimum temperature yesterday: 50 °F (at 11:00 PM)
Average temperature yesterday: 55 °F

High & Low Weather Summary for the Past Weeks

 TemperatureHumidityPressure
High65 °F (Jun 23, 3:00 PM)98% (Jun 14, 6:00 AM)30.16 "Hg (Jun 14, 6:00 AM)
Low48 °F (Jun 23, 4:00 AM)59% (Jun 18, 4:00 PM)29.38 "Hg (Jun 14, 5:00 PM)
Average56 °F84%29.86 "Hg
* Reported Jun 13 8:00 PM — Jun 28 8:00 PM, Londonderry, Weather by CustomWeather, © 2016

Note: Actual official high and low records may vary slightly from our data, if they occured in-between our weather recording intervals... More about our weather records

Advertising

Londonderry Weather History for the Previous 24 Hours

Scroll right to see more
 ConditionsComfort  
Time TempWeatherWind HumidityBarometerVisibility
8:00 PM
Tue, Jun 28
57 °FCool.14 mph65%29.71 "Hg19 mi
7:00 PM58 °FCool.13 mph67%29.71 "Hg18 mi
6:00 PM59 °FCool.17 mph64%29.71 "Hg28 mi
5:00 PM63 °FMild.10 mph71%29.72 "Hg28 mi
4:00 PM60 °FCool.12 mph67%29.73 "Hg25 mi
3:00 PM60 °FCool.14 mph68%29.75 "Hg31 mi
2:00 PM58 °FCool.14 mph69%29.77 "Hg28 mi
1:00 PM59 °FCool.14 mph68%29.79 "Hg31 mi
12:00 PM55 °FCool.12 mph83%29.81 "Hg12 mi
11:00 AM54 °FCool.12 mph83%29.83 "Hg12 mi
10:00 AM54 °FCool.9 mph86%29.84 "Hg12 mi
9:00 AM53 °FCool.2 mph87%29.85 "Hg19 mi
8:00 AM53 °FCool.3 mph85%29.86 "Hg28 mi
7:00 AM52 °FRain showers. Cloudy.7 mph86%29.89 "Hg16 mi
6:00 AM52 °FCool.10 mph86%29.91 "Hg17 mi
5:00 AM51 °FCool.8 mph87%29.93 "Hg15 mi
4:00 AM50 °FCool.2 mph85%29.95 "Hg18 mi
3:00 AM51 °FCool.7 mph83%29.96 "Hg17 mi
2:00 AM51 °FCool.7 mph86%29.98 "Hg13 mi
1:00 AM52 °FCool.7 mph83%30.01 "Hg14 mi
12:00 AM51 °FCool.8 mph87%30.01 "Hg12 mi
11:00 PM
Mon, Jun 27
50 °FCool.5 mph88%30.03 "Hg11 mi
10:00 PM53 °FCool.5 mph81%30.03 "Hg10 mi
9:00 PM56 °FCool.10 mph74%30.03 "Hg11 mi
Weather by CustomWeather, © 2016

See weather overviewHow to use our weather pages